• In Romania
  • List of Countries
  • For 7 days
  • Water Temperature
  • Satellite Maps
  • Weather Map
  • Weather Widgets
  • user-avatar
    Login

    Hourly Weather Kerns

    Today, 23 May, Tuesday

    Time Temperature Precipitation Wind Pressure Humidity
    00:00 +21°C° 0 mm 4 mps 761 mmHg 95%
    01:00 +21°C° 0 mm 4 mps 761 mmHg 96%
    02:00 +21°C° 0 mm 4 mps 760 mmHg 96%
    03:00 +21°C° 0 mm 5 mps 760 mmHg 96%
    04:00 +22°C° 0 mm 5 mps 760 mmHg 96%
    05:00 +22°C° 0 mm 5 mps 760 mmHg 97%
    06:00 +22°C° 0 mm 5 mps 760 mmHg 97%
    07:00 +22°C° 0 mm 5 mps 761 mmHg 97%
    08:00 +25°C° 0 mm 5 mps 761 mmHg 90%
    09:00 +26°C° 0 mm 5 mps 761 mmHg 83%
    10:00 +28°C° 0 mm 5 mps 761 mmHg 77%
    11:00 +29°C° 0.1 mm 5 mps 761 mmHg 74%
    12:00 +29°C° 0.1 mm 5 mps 760 mmHg 72%
    13:00 +30°C° 0.1 mm 5 mps 760 mmHg 69%
    14:00 +29°C° 0 mm 5 mps 760 mmHg 71%
    15:00 +29°C° 0 mm 5 mps 759 mmHg 73%
    16:00 +28°C° 0 mm 5 mps 759 mmHg 75%
    17:00 +27°C° 0 mm 5 mps 759 mmHg 82%
    18:00 +26°C° 0 mm 5 mps 760 mmHg 88%
    19:00 +23°C° 0 mm 5 mps 760 mmHg 95%
    20:00 +23°C° 0.1 mm 5 mps 760 mmHg 96%
    21:00 +23°C° 0.1 mm 5 mps 761 mmHg 97%
    22:00 +23°C° 0.1 mm 4 mps 761 mmHg 97%
    23:00 +23°C° 0.2 mm 4 mps 761 mmHg 97%

    Tomorrow, 24 May, Wednesday

    Time Temperature Precipitation Wind Pressure Humidity
    00:00 +23°C° 0.2 mm 5 mps 761 mmHg 97%
    01:00 +23°C° 0.2 mm 5 mps 761 mmHg 97%
    02:00 +23°C° 0.4 mm 5 mps 761 mmHg 97%
    03:00 +23°C° 0.4 mm 5 mps 760 mmHg 97%
    04:00 +23°C° 0.4 mm 5 mps 760 mmHg 97%
    05:00 +23°C° 0.6 mm 5 mps 761 mmHg 97%
    06:00 +23°C° 0.6 mm 5 mps 761 mmHg 97%
    07:00 +23°C° 0.6 mm 6 mps 761 mmHg 96%
    08:00 +24°C° 0.4 mm 6 mps 762 mmHg 94%
    09:00 +24°C° 0.4 mm 6 mps 762 mmHg 91%
    10:00 +24°C° 0.4 mm 6 mps 762 mmHg 88%
    11:00 +26°C° 0.1 mm 6 mps 762 mmHg 84%
    12:00 +27°C° 0.1 mm 6 mps 761 mmHg 80%
    13:00 +27°C° 0.1 mm 6 mps 761 mmHg 76%
    14:00 +27°C° 0.1 mm 6 mps 760 mmHg 77%
    15:00 +27°C° 0.1 mm 6 mps 760 mmHg 78%
    16:00 +26°C° 0.1 mm 6 mps 760 mmHg 79%
    17:00 +24°C° 0 mm 6 mps 760 mmHg 83%
    18:00 +23°C° 0 mm 5 mps 761 mmHg 88%
    19:00 +22°C° 0 mm 5 mps 761 mmHg 93%
    20:00 +22°C° 0 mm 5 mps 761 mmHg 93%
    21:00 +22°C° 0 mm 5 mps 762 mmHg 92%
    22:00 +22°C° 0 mm 6 mps 762 mmHg 92%
    23:00 +22°C° 0 mm 6 mps 762 mmHg 93%

    Day after tomorrow, 25 May, Thursday

    Time Temperature Precipitation Wind Pressure Humidity
    00:00 +22°C° 0 mm 6 mps 761 mmHg 93%
    01:00 +22°C° 0 mm 6 mps 761 mmHg 94%
    02:00 +21°C° 0 mm 6 mps 761 mmHg 94%
    03:00 +21°C° 0 mm 6 mps 760 mmHg 94%
    04:00 +21°C° 0 mm 6 mps 760 mmHg 94%
    05:00 +21°C° 0.1 mm 6 mps 761 mmHg 94%
    06:00 +21°C° 0.1 mm 6 mps 761 mmHg 94%
    07:00 +21°C° 0.1 mm 6 mps 761 mmHg 94%
    08:00 +22°C° 0.1 mm 6 mps 762 mmHg 88%
    09:00 +23°C° 0.1 mm 6 mps 762 mmHg 82%
    10:00 +26°C° 0.1 mm 6 mps 762 mmHg 76%
    11:00 +26°C° 0.1 mm 6 mps 762 mmHg 74%
    12:00 +26°C° 0.1 mm 6 mps 761 mmHg 73%
    13:00 +27°C° 0.1 mm 6 mps 761 mmHg 71%
    14:00 +27°C° 0 mm 6 mps 760 mmHg 71%
    15:00 +27°C° 0 mm 6 mps 760 mmHg 71%
    16:00 +27°C° 0 mm 6 mps 760 mmHg 71%
    17:00 +24°C° 0 mm 6 mps 760 mmHg 78%
    18:00 +23°C° 0 mm 6 mps 761 mmHg 84%
    19:00 +22°C° 0 mm 6 mps 761 mmHg 90%
    20:00 +22°C° 0 mm 6 mps 761 mmHg 91%
    21:00 +22°C° 0 mm 6 mps 762 mmHg 91%
    22:00 +21°C° 0 mm 6 mps 762 mmHg 91%
    23:00 +21°C° 0 mm 6 mps 762 mmHg 91%

    26 May, Friday

    Time Temperature Precipitation Wind Pressure Humidity
    00:00 +21°C° 0 mm 6 mps 761 mmHg 92%
    01:00 +21°C° 0 mm 6 mps 761 mmHg 92%
    02:00 +21°C° 0 mm 6 mps 761 mmHg 92%
    03:00 +21°C° 0 mm 6 mps 760 mmHg 93%
    04:00 +21°C° 0 mm 6 mps 760 mmHg 93%
    05:00 +21°C° 0 mm 6 mps 760 mmHg 92%
    06:00 +21°C° 0 mm 6 mps 761 mmHg 92%
    07:00 +22°C° 0 mm 6 mps 761 mmHg 92%
    08:00 +23°C° 0 mm 6 mps 761 mmHg 86%
    09:00 +24°C° 0 mm 6 mps 762 mmHg 80%
    10:00 +26°C° 0 mm 6 mps 762 mmHg 75%
    11:00 +27°C° 0 mm 6 mps 761 mmHg 71%
    12:00 +27°C° 0 mm 6 mps 761 mmHg 68%
    13:00 +28°C° 0 mm 6 mps 760 mmHg 65%
    14:00 +28°C° 0 mm 6 mps 760 mmHg 66%
    15:00 +27°C° 0 mm 6 mps 760 mmHg 66%
    16:00 +27°C° 0 mm 6 mps 759 mmHg 67%
    17:00 +24°C° 0 mm 6 mps 760 mmHg 75%
    18:00 +23°C° 0 mm 5 mps 761 mmHg 83%
    19:00 +21°C° 0 mm 5 mps 761 mmHg 91%
    20:00 +21°C° 0 mm 5 mps 762 mmHg 92%
    21:00 +21°C° 0 mm 5 mps 762 mmHg 93%
    22:00 +21°C° 0 mm 5 mps 762 mmHg 94%
    23:00 +21°C° 0 mm 5 mps 762 mmHg 94%

    27 May, Saturday

    Time Temperature Precipitation Wind Pressure Humidity
    00:00 +21°C° 0 mm 5 mps 762 mmHg 94%
    01:00 +21°C° 0 mm 5 mps 761 mmHg 94%
    02:00 +21°C° 0 mm 5 mps 761 mmHg 94%
    03:00 +21°C° 0 mm 5 mps 761 mmHg 94%
    04:00 +21°C° 0 mm 5 mps 761 mmHg 93%
    05:00 +21°C° 0 mm 5 mps 761 mmHg 93%
    06:00 +21°C° 0 mm 5 mps 761 mmHg 94%
    07:00 +21°C° 0 mm 5 mps 762 mmHg 94%
    08:00 +22°C° 0 mm 5 mps 762 mmHg 88%
    09:00 +25°C° 0 mm 5 mps 762 mmHg 82%
    10:00 +26°C° 0 mm 5 mps 762 mmHg 76%
    11:00 +26°C° 0.1 mm 5 mps 762 mmHg 74%
    12:00 +27°C° 0.1 mm 5 mps 761 mmHg 72%
    13:00 +27°C° 0.1 mm 6 mps 760 mmHg 70%
    14:00 +27°C° 0 mm 6 mps 760 mmHg 72%
    15:00 +27°C° 0 mm 5 mps 760 mmHg 73%
    16:00 +27°C° 0 mm 5 mps 760 mmHg 75%
    17:00 +25°C° 0 mm 5 mps 760 mmHg 81%
    18:00 +23°C° 0 mm 5 mps 761 mmHg 87%
    19:00 +22°C° 0 mm 5 mps 761 mmHg 93%
    20:00 +22°C° 0 mm 5 mps 762 mmHg 94%
    21:00 +21°C° 0 mm 5 mps 762 mmHg 96%
    22:00 +21°C° 0 mm 5 mps 762 mmHg 97%
    23:00 +21°C° 0 mm 5 mps 762 mmHg 97%

    28 May, Sunday

    Time Temperature Precipitation Wind Pressure Humidity
    00:00 +21°C° 0 mm 5 mps 761 mmHg 97%
    01:00 +21°C° 0 mm 5 mps 761 mmHg 97%
    02:00 +21°C° 0 mm 5 mps 761 mmHg 96%
    03:00 +21°C° 0 mm 5 mps 761 mmHg 96%
    04:00 +21°C° 0 mm 5 mps 761 mmHg 95%
    05:00 +21°C° 0 mm 5 mps 761 mmHg 96%
    06:00 +21°C° 0 mm 5 mps 761 mmHg 96%
    07:00 +21°C° 0 mm 5 mps 762 mmHg 97%
    08:00 +22°C° 0 mm 5 mps 762 mmHg 90%
    09:00 +25°C° 0 mm 5 mps 762 mmHg 83%
    10:00 +26°C° 0 mm 5 mps 762 mmHg 76%
    11:00 +26°C° 0.1 mm 5 mps 762 mmHg 75%
    12:00 +27°C° 0.1 mm 5 mps 761 mmHg 74%
    13:00 +27°C° 0.1 mm 5 mps 761 mmHg 72%
    14:00 +27°C° 0 mm 5 mps 760 mmHg 74%
    15:00 +26°C° 0 mm 5 mps 760 mmHg 76%
    16:00 +26°C° 0 mm 5 mps 760 mmHg 77%
    17:00 +25°C° 0 mm 5 mps 760 mmHg 83%
    18:00 +23°C° 0 mm 5 mps 761 mmHg 89%
    19:00 +22°C° 0 mm 5 mps 761 mmHg 95%
    20:00 +22°C° 0 mm 5 mps 762 mmHg 95%
    21:00 +22°C° 0 mm 5 mps 762 mmHg 95%
    22:00 +22°C° 0 mm 5 mps 762 mmHg 95%
    23:00 +22°C° 0 mm 5 mps 762 mmHg 95%
    Show more